Regional Weather Roundup
Issued by NWS Jackson, KY

Home | Current Version | Previous Version | Text Only | Print | Product List | Glossary On
Versions: 1 2 3 4 5 6 7 8 9 10 11 12 13 14 15 16 17 18 19 20 21 22 23 24 25 26 27 28 29 30 31 32 33 34 35 36 37 38 39 40 41 42 43 44 45 46 47 48 49 50
000
ASUS43 KJKL 261910
RWRJKL

EAST KENTUCKY HOURLY WEATHER ROUNDUP
NATIONAL WEATHER SERVICE JACKSON KY
300 PM EDT TUE SEP 26 2017

NOTE: "FAIR" INDICATES FEW OR NO CLOUDS BELOW 12,000 FEET WITH
NO SIGNIFICANT WEATHER AND/OR OBSTRUCTIONS TO VISIBILITY.

* THESE REPORTS ARE NOT UNDER NWS QUALITY CONTROL AND MAY NOT
  REPORT WEATHER SUCH AS PRECIPITATION AND FOG.

KYZ079-080-083-085-087-088-110-112-115-119-120-262000
...EASTERN KENTUCKY...

CITY           SKY/WX    TMP DP  RH WIND       PRES   REMARKS
JACKSON        MOSUNNY   83  64  52 CALM      30.02F
LONDON         MOSUNNY   85  62  46 E7        30.01F
SOMERSET*      MOSUNNY   84  59  42 N5        30.01F
MONTICELLO*    SUNNY     84  63  49 N16       30.02F
MIDDLESBORO*   MOSUNNY   85  63  48 NE5       30.00F
HARLAN APT*    PTCLDY    84  59  42 CALM      30.01F
PIKE CO APT*   PTSUNNY   81  66  58 N5        30.02F
BIG SANDY APT* MOCLDY    84  68  58 NW6       30.01F
MOREHEAD APT*  CLEAR     88  61  40 VRB3      30.02F
$$

KYZ035-036-041-042-044-050-067-078-099-262000
...CENTRAL KENTUCKY...

CITY           SKY/WX    TMP DP  RH WIND       PRES   REMARKS
DANVILLE*      PTSUNNY   86  63  45 CALM      30.02F
LEXINGTON      PTSUNNY   87  62  43 W3        30.01F
FRANKFORT      SUNNY     89  58  34 N5        29.99F
LOUISVILLE     MOSUNNY   88  60  38 S3        29.97F
LEBANON*         N/A     84  63  48 CALM      30.00F
GLASGOW*       MOSUNNY   89  61  38 SE5       29.98F
BOWLING GREEN  MOSUNNY   88  64  44 VRB3      29.98F
$$

KYZ091>093-OHZ055-061-077-WVZ005-015-034-035-042-262000
...SOUTHERN OHIO/WEST VIRGINIA...

CITY           SKY/WX    TMP DP  RH WIND       PRES   REMARKS
COVINGTON      MOSUNNY   87  63  44 S5        30.00F
COLUMBUS       MOSUNNY   90  60  36 VRB3      29.98F
DAYTON         MOSUNNY   87  60  40 S6        30.01F
WILMINGTON     SUNNY     87  63  44 W6        30.00F
HUNTINGTON     SUNNY     89  62  40 N6        29.98F
CHARLESTON     MOSUNNY   88  61  40 VRB3      29.97F
PINEVILLE*     PTSUNNY   85  59  41 MISG      30.05F
BECKLEY        PTSUNNY   79  59  50 NE7       30.05F
BLUEFIELD      SUNNY     78  54  43 VRB6      30.07F
$$

VAZ002-007-008-TNZ017-027-036-066-071-262000
...SOUTHWEST VIRGINIA/EAST TENNESSEE...

CITY           SKY/WX    TMP DP  RH WIND       PRES   REMARKS
WISE*          SUNNY     81  59  47 NE9       30.08F
JONESVILLE*      N/A     86  63  45 SW3       30.02F
ABINGDON*      PTSUNNY   85  60  43 NE3       30.02F
BRISTOL        MOSUNNY   87  61  41 N6        29.99F
MORRISTOWN*    PTCLDY    84  61  45 NE10      29.98F
KNOXVILLE      MOSUNNY   86  64  47 NW6       29.97F
LAFOLLETTE*    CLEAR     84  61  45 CALM      30.02F
OAK RIDGE      MOSUNNY   85  66  53 VRB6      29.99F
CROSSVILLE     MOSUNNY   80  61  52 NW8       30.04F
NASHVILLE      MOSUNNY   89  65  44 NE6       29.98F HX  91
$$

...KEY TO REMARKS...
VSB - VISIBILITY IN MILES
WCI - WIND CHILL INDEX
HX  - HEAT INDEX

$$



USA.gov is the U.S. government's official web portal to all federal, state and local government web resources and services.